• Join FlightAware (Why Join?)
  • Login
  • US Flag 
05:46AM EST


 

Airport Tracker/Info


-or-


 

Live Flight TrackerFlight Track Log ✈ N848N ✈ 27-Jul-2013 ✈ KFWA - KILG

Flight Track Log - Related Links

Times and Time Zones

All times are in EDT time to prevent confusion due to time zone crossing. See the N848N flight status page for this flight to view local times or setup timezone preferences in your user account.

Time Position Orientation Groundspeed Altitude Reporting Facility
EDT Latitude Longitude Course Direction KTS MPH feet Rate Location/Type
03:42PM 40.9286 -85.2306 94° East 232 267 3,800  Level Chicago Center
03:43PM 40.9003 -85.1469 114° Southeast 272 313 7,200 2,784 Climbing Chicago Center
03:44PM 40.8944 -85.0419 94° East 283 326 9,600 2,064 Climbing Chicago Center
03:45PM 40.8889 -84.9258 94° East 308 354 11,500 2,516 Climbing Chicago Center
03:46PM 40.8811 -84.7728 94° East 342 394 14,800 2,855 Climbing Chicago Center
03:47PM 40.9032 -84.1372 94° East  Level FlightAware Approximate
03:47PM 40.8750 -84.6431 94° East 353 406 17,400  Level Chicago Center
03:48PM 40.8689 -84.5233 94° East 366 421 19,500 2,017 Climbing Indianapolis Center
03:49PM 40.8608 -84.3833 94° East 378 435 21,300 1,597 Climbing Indianapolis Center
03:50PM 40.8531 -84.2350 94° East 399 459 22,800 1,268 Climbing Indianapolis Center
03:51PM 40.8453 -84.0756 94° East 428 493 23,900 1,073 Climbing Indianapolis Center
03:52PM 40.8367 -83.9094 94° East 447 514 25,000 1,073 Climbing Indianapolis Center
03:53PM 40.8256 -83.7386 95° East 459 528 26,100 1,122 Climbing Indianapolis Center
03:54PM 40.8147 -83.5353 94° East 471 542 27,300 1,065 Climbing Indianapolis Center
03:55PM 40.8044 -83.3758 95° East 474 545 28,300 976 Climbing Indianapolis Center
03:56PM 40.7936 -83.2006 95° East 476 548 29,300 1,024 Climbing Indianapolis Center
03:57PM 40.7828 -83.0283 95° East 470 541 30,400 1,073 Climbing Indianapolis Center
03:58PM 40.7692 -82.8592 96° East 463 533 31,500 981 Climbing Indianapolis Center
04:00PM 40.7417 -82.5864 97° East 447 514 33,000 570 Climbing Cleveland Center
04:01PM 40.7256 -82.4217 97° East 447 514 33,000  Level Cleveland Center
04:02PM 40.7094 -82.2594 97° East 452 520 33,000  Level Cleveland Center
04:03PM 40.6931 -82.0892 97° East 452 520 33,000  Level Cleveland Center
04:04PM 40.6742 -81.9217 98° East 457 526 33,000  Level Cleveland Center
04:05PM 40.6575 -81.7381 97° East 462 532 33,000  Level Cleveland Center
04:06PM 40.6569 -81.5628 90° East 472 543 33,000  Level Cleveland Center
04:07PM 40.6708 -81.3853 84° East 480 552 33,000  Level Cleveland Center
04:08PM 40.6825 -81.2100 85° East 485 558 33,000  Level Cleveland Center
04:09PM 40.6853 -81.0294 89° East 480 552 33,000  Level Cleveland Center
04:10PM 40.6692 -80.8594 97° East 474 545 33,000  Level Cleveland Center
04:11PM 40.6467 -80.6897 100° East 474 545 33,000  Level Cleveland Center
04:12PM 40.6278 -80.5175 98° East 469 540 33,000  Level Cleveland Center
04:13PM 40.6089 -80.3478 98° East 469 540 33,000  Level Cleveland Center
04:14PM 40.5897 -80.1783 98° East 469 540 33,000  Level Cleveland Center
04:15PM 40.5703 -80.0092 99° East 469 540 33,000  Level Cleveland Center
04:16PM 40.5528 -79.8536 98° East 474 545 33,000  Level Cleveland Center
04:17PM 40.5328 -79.6844 99° East 474 545 33,000  Level Cleveland Center
04:18PM 40.5125 -79.5097 99° East 474 545 33,000  Level Cleveland Center
04:19PM 40.4919 -79.3381 99° East 474 545 33,000  Level Cleveland Center
04:20PM 40.4647 -79.1450 100° East 479 551 33,000  Level Cleveland Center
04:21PM 40.4436 -78.9736 99° East 479 551 33,000  Level Cleveland Center
04:22PM 40.4225 -78.8186 100° East 486 559 33,000  Level Cleveland Center
04:23PM 40.4008 -78.6419 99° East 486 559 33,000 -950 Level Cleveland Center
04:24PM 40.3792 -78.4708 99° East 486 559 31,100 -2,104 Descending Cleveland Center
04:25PM 40.3422 -78.2033 100° East 492 566 27,600 -2,129 Descending New York Center
04:26PM 40.3214 -78.0375 99° East 478 550 25,600 -1,289 Descending New York Center
04:27PM 40.3125 -77.8733 94° East 465 535 25,000 -496 Descending New York Center
04:28PM 40.3636 -77.7178 67° East 442 509 24,600 -850 Descending New York Center
04:29PM 40.4225 -77.5628 63° Northeast 452 520 23,300 -1,412 Descending New York Center
04:30PM 40.4767 -77.4153 64° Northeast 452 520 21,800 -1,613 Descending New York Center
04:31PM 40.5269 -77.2617 67° East 431 496 20,100 -1,412 Descending New York Center
04:32PM 40.5636 -77.1256 70° East 404 465 19,000 -545 Descending New York Center
04:33PM 40.5744 -77.0008 83° East 387 445 19,000  Level New York Center
04:34PM 40.5400 -76.8611 108° East 371 427 19,000  Level New York Center
04:35PM 40.4917 -76.7450 119° Southeast 371 427 19,000  Level New York Center
04:36PM 40.4492 -76.6350 117° Southeast 371 427 19,000 -732 Level New York Center
04:37PM 40.3989 -76.5161 119° Southeast 371 427 17,500 -1,600 Descending New York Center
04:38PM 40.3506 -76.3950 118° Southeast 350 403 15,800 -1,576 Descending New York Center
04:39PM 40.3056 -76.2878 119° Southeast 345 397 14,400 -1,279 Descending New York Center
04:40PM 40.2661 -76.1950 119° Southeast 339 390 13,200 -1,210 Descending New York Center
04:41PM 40.2231 -76.0883 118° Southeast 334 384 12,000 -1,322 Descending New York Center
04:42PM 40.1778 -75.9761 118° Southeast 326 375 10,600 -1,438 Descending New York Center
04:43PM 40.1183 -75.9092 139° Southeast 294 338 9,100 -1,659 Descending New York Center
04:44PM 40.0514 -75.8664 154° Southeast 287 330 7,200 -2,017 Descending New York Center
04:45PM 39.9764 -75.8147 152° Southeast 287 330 5,100 -1,831 Descending New York Center
04:46PM 39.9178 -75.7728 151° Southeast 276 318 3,600 -1,091 Descending New York Center
04:47PM 39.8553 -75.7222 148° Southeast 248 285 2,900 -492 Descending New York Center
04:48PM 39.8219 -75.6739 132° Southeast 210 242 2,600 -350 Descending New York Center
04:49PM 39.7758 -75.6275 142° Southeast 200 230 2,200 -555 Descending New York Center
04:50PM 39.7394 -75.6006 150° Southeast 180 207 1,500 -942 Descending New York Center
04:51PM 39.6956 -75.6031 183° South 150 173 300 -661 Descending New York Center
04:52PM 39.6583 -75.5950 171° South 150 173 200 -103 Descending New York Center
04:56PM 39.6667 -75.6000 322° Northwest  Level FlightAware Approximate
05:03PM 39.6787 -75.6066 322° Northwest  Level Estimated
05:04PM 39.6787 -75.6066 322° Northwest  Level Estimated
05:05PM 39.6787 -75.6066 322° Northwest  Level Estimated
05:06PM 39.6787 -75.6066 322° Northwest  Level Estimated
05:07PM 39.6787 -75.6066 322° Northwest  Level Estimated
05:08PM 39.6787 -75.6066 322° Northwest  Level Estimated